RH
3 3 3 3 3 3 3 3 3 3 3 3 3 3 3 3 3 3 3 3 3 3 3 3 3 3 3 3 3 3 3 3 3 3 3 3 3 3 3 3 3 3 4 4 5 6 6 7 7 8 8 8 8 8 8 8 10 11 14 17 19 20 20 21 23 28 36 46 54 61 65 67 69 69 69 68 67 66 65 64 62 62 62 62 61 60 57 55 51 47 44 45 49 53 57 54 49 45 42 43 48 52 54
3 3 2 2 2 2 2 2 2 2 2 2 2 2 2 2 2 2 3 3 3 3 3 3 3 3 3 3 3 3 3 3 3 3 3 3 3 2 2 2 2 2 3 3 4 4 5 5 6 7 7 8 8 8 8 8 9 10 11 14 17 19 20 20 21 23 26 35 44 53 60 64 66 68 70 71 70 69 69 67 65 63 62 61 60 59 58 56 54 52 48 46 47 50 55 54 52 48 44 43 46 50 52
2 2 2 2 2 2 2 2 2 2 2 2 2 2 2 2 2 2 2 2 2 2 2 2 2 2 3 3 3 3 3 3 2 2 3 3 3 2 2 2 2 2 2 2 3 3 3 4 5 5 6 7 8 8 8 8 8 9 10 11 14 16 19 20 20 21 22 26 34 42 52 58 63 66 70 71 72 72 71 70 68 65 62 61 60 60 58 56 56 56 54 51 49 49 51 53 53 50 48 45 45 46 48
2 2 2 2 2 2 2 2 2 2 2 2 2 2 2 2 2 2 2 2 2 2 2 2 2 2 2 2 2 2 2 2 2 2 2 2 3 2 2 2 2 2 2 2 2 2 2 3 4 4 5 6 6 7 8 8 8 8 8 10 11 14 16 19 20 21 21 22 26 32 42 50 58 63 67 70 72 72 73 72 70 67 63 61 61 61 61 59 58 57 56 56 54 52 50 51 52 51 50 48 46 44 43
2 2 2 2 2 2 2 2 2 2 2 2 2 2 2 2 2 2 2 2 2 2 2 2 2 2 2 2 2 2 2 2 2 2 2 2 2 2 2 2 2 2 2 2 2 2 2 2 2 3 4 4 5 6 7 8 8 8 8 9 10 11 14 16 19 21 22 21 22 25 31 41 50 58 63 67 70 72 74 74 73 70 66 63 61 62 63 62 61 59 57 58 58 56 53 51 50 50 51 51 49 46 43
2 2 2 2 2 2 2 2 2 2 2 2 2 2 2 2 2 2 2 2 2 2 2 2 2 2 2 2 2 2 2 2 2 2 2 2 2 2 2 2 2 2 2 2 2 2 2 2 2 2 2 3 4 4 6 6 7 8 8 8 9 10 11 14 17 20 22 21 21 22 24 32 40 49 57 62 66 70 73 74 74 72 69 65 63 62 63 65 65 64 61 59 58 57 56 53 52 51 53 53 52 50 46
2 2 2 2 2 2 2 2 2 2 2 2 2 2 2 2 2 2 2 2 2 2 2 2 2 2 2 2 2 2 2 2 2 2 2 2 2 2 2 2 2 2 2 2 2 2 2 2 2 2 2 2 3 3 4 5 6 7 8 8 8 9 10 12 14 18 20 21 21 21 21 25 32 40 48 56 62 67 71 74 74 74 71 68 65 64 63 66 67 67 65 62 60 58 57 55 55 55 56 57 56 54 50
2 2 2 2 2 2 2 2 2 2 2 2 2 2 2 2 2 2 2 2 1 2 2 2 2 1 1 1 2 2 2 2 2 2 2 2 2 2 2 2 2 2 2 2 2 2 2 2 2 2 2 2 2 2 3 4 4 6 7 8 8 8 9 10 12 15 18 20 21 21 21 22 25 31 39 47 55 62 68 72 74 74 73 70 68 65 63 64 66 68 68 66 64 61 60 58 57 57 57 58 60 59 56
2 2 2 2 2 2 2 2 2 2 2 2 2 2 1 1 1 1 1 1 1 1 1 1 1 1 1 1 1 1 1 1 1 1 1 1 2 2 2 2 2 2 2 2 2 2 2 2 2 2 2 2 2 2 2 3 3 4 5 6 8 8 8 10 11 13 16 18 20 21 21 21 22 24 30 38 47 56 64 69 72 73 73 72 70 68 65 64 65 67 70 69 68 66 63 60 58 58 57 58 60 62 60
2 2 2 2 2 2 2 2 2 2 1 1 1 1 1 1 1 1 1 1 1 1 1 1 1 1 1 1 1 1 1 1 1 1 1 1 1 1 1 1 2 2 2 2 2 2 2 2 2 2 1 2 2 2 2 2 2 3 4 5 6 7 8 8 10 12 14 16 18 20 21 21 21 22 24 30 38 47 58 65 69 71 72 72 72 70 67 65 64 66 69 71 70 69 67 64 61 59 58 58 60 62 63
2 2 2 2 2 2 1 1 1 1 1 1 1 1 1 1 1 1 1 1 1 1 1 1 1 1 1 1 1 1 1 1 1 1 1 1 1 1 1 1 1 1 1 2 2 2 2 2 2 2 1 1 1 2 2 2 2 2 3 4 4 6 7 8 9 10 12 14 16 18 20 20 21 21 22 24 30 38 49 58 65 69 70 72 72 71 69 67 66 66 69 72 72 71 70 67 64 61 58 58 58 61 64
2 2 1 1 1 1 1 1 1 1 1 1 1 1 1 1 1 1 1 1 1 1 1 1 1 1 1 1 1 1 1 1 1 1 1 1 1 1 1 1 1 1 1 1 1 1 2 2 2 2 2 1 1 1 2 2 2 2 2 2 3 4 6 7 8 10 11 13 15 17 18 20 20 21 21 22 26 31 40 50 60 66 69 70 71 72 70 69 68 68 69 72 74 74 72 70 67 64 60 58 58 60 62
1 1 1 1 1 1 1 1 1 1 1 1 1 1 1 1 1 1 1 1 1 1 1 1 1 1 1 1 1 1 1 1 1 1 1 1 1 1 1 1 1 1 1 1 1 1 1 1 2 2 2 1 1 1 1 1 2 2 2 2 2 3 4 5 7 8 10 11 13 15 17 18 20 20 21 21 22 26 31 42 52 61 66 69 70 71 71 71 70 70 70 73 75 76 75 72 70 67 62 60 58 58 60
1 1 1 1 1 1 1 1 1 1 1 1 1 1 1 1 1 1 1 1 1 1 1 1 1 1 1 1 1 1 1 1 1 1 1 1 1 1 1 1 1 1 1 1 1 1 1 1 1 1 1 1 1 1 1 1 1 1 2 2 2 2 3 4 5 6 8 10 12 14 16 17 18 20 21 21 22 23 26 33 43 54 62 66 69 70 72 72 72 72 72 74 76 77 78 75 72 69 66 61 58 57 57
1 1 1 1 1 1 1 1 1 1 1 1 1 1 1 1 1 1 1 1 1 1 1 1 1 1 1 1 1 1 1 1 1 1 1 1 1 1 1 1 1 1 1 1 1 1 1 1 1 1 1 1 1 1 1 1 1 1 1 2 2 2 2 2 4 5 6 8 10 12 14 16 18 19 20 21 21 22 23 27 35 45 56 62 66 69 71 72 73 74 74 74 76 78 80 78 75 72 69 64 60 57 56
1 1 1 1 1 1 1 1 1 1 1 1 1 1 1 1 1 1 1 1 1 1 1 1 1 1 1 1 1 1 1 1 1 1 1 1 1 1 1 1 1 1 1 1 1 1 1 1 1 1 1 1 1 1 1 1 1 1 1 1 1 2 2 2 2 4 5 6 8 11 13 15 17 18 19 20 21 21 22 24 28 37 47 56 63 67 70 72 73 74 74 75 77 79 80 80 78 76 72 68 63 59 56
2 2 2 2 2 2 2 2 2 2 1 1 1 1 1 1 1 1 1 1 1 1 1 1 1 1 1 1 1 1 1 1 1 1 1 1 1 1 1 1 1 1 1 1 1 1 1 1 1 1 1 1 1 1 1 1 1 1 1 1 1 1 2 2 2 2 3 5 7 8 11 14 16 17 18 20 20 21 22 22 24 30 39 49 58 64 68 70 72 74 74 76 77 78 80 81 80 79 74 70 66 62 58
2 2 2 2 2 2 2 2 2 2 2 2 2 2 2 2 2 2 2 1 1 1 1 1 1 1 1 1 1 1 1 1 1 1 1 1 1 1 1 1 1 1 1 1 1 1 1 1 1 1 1 1 1 1 1 1 1 1 1 1 1 1 1 2 2 2 2 3 5 7 9 12 14 16 18 19 20 20 21 22 23 26 32 42 52 60 66 69 71 73 74 75 76 77 78 79 80 81 79 74 69 65 61
2 2 2 2 2 2 2 2 2 2 2 2 2 2 2 2 2 2 2 2 2 2 2 1 1 1 1 1 1 1 1 1 1 1 1 1 1 1 1 1 1 1 1 1 1 1 1 1 1 1 1 1 1 1 1 1 1 1 1 1 1 1 1 1 1 2 2 2 3 5 7 10 12 15 17 18 19 20 21 22 23 24 28 35 45 55 63 68 70 72 73 74 75 76 76 77 80 82 82 78 74 69 65
2 2 2 2 2 2 2 2 2 2 2 2 2 2 2 2 2 2 2 2 2 2 2 2 2 2 1 1 1 1 1 1 1 1 1 1 1 1 1 1 1 1 1 1 1 1 1 1 1 1 1 1 1 1 1 1 1 1 1 1 1 1 1 1 1 1 2 2 2 3 4 7 10 13 16 17 18 20 21 22 23 24 26 30 39 48 59 65 69 71 72 73 74 74 74 76 79 81 83 81 77 73 68
2 2 3 3 3 3 3 3 3 3 3 3 3 3 3 3 3 3 2 2 2 2 2 2 2 2 2 2 2 2 1 1 1 1 1 1 1 1 1 1 1 1 1 1 1 1 1 1 1 1 1 1 1 1 1 1 1 1 1 1 1 1 1 1 1 1 1 2 2 2 3 5 8 10 14 16 18 19 20 22 23 24 24 28 34 42 52 61 67 70 71 72 72 73 74 76 78 80 83 83 81 77 72
3 3 3 3 3 3 3 3 3 3 3 3 3 3 3 3 3 3 3 3 3 3 2 2 2 2 2 2 2 2 2 2 2 2 2 2 1 1 1 1 1 1 1 1 1 1 1 1 1 1 1 1 1 1 1 1 1 1 1 1 1 1 1 1 1 1 1 1 2 2 2 3 5 8 11 14 17 19 20 22 22 24 24 26 30 36 44 54 62 68 70 71 72 72 73 74 76 79 81 82 82 80 76
3 3 3 4 4 4 4 4 4 4 4 4 4 4 4 4 4 4 4 3 3 3 3 3 3 3 3 2 2 2 2 2 2 2 2 2 2 2 2 1 1 1 1 1 1 1 1 1 1 1 1 1 1 1 1 1 1 1 1 1 1 1 1 1 1 1 1 1 1 2 2 2 3 5 8 12 15 18 20 21 22 23 24 26 27 31 37 46 56 64 70 71 71 72 72 74 75 77 79 80 81 80 78
4 4 4 4 4 4 4 4 4 4 4 4 4 4 4 4 4 4 4 4 4 4 4 4 4 3 3 3 3 3 2 2 2 2 2 2 2 2 2 2 2 2 1 1 1 1 1 1 1 1 1 1 1 1 1 1 1 1 1 1 1 1 1 1 1 1 1 1 1 1 2 2 2 3 5 8 12 16 19 21 22 23 24 24 26 28 32 40 49 60 68 71 72 72 72 72 74 75 77 79 81 81 81
4 4 4 4 4 4 4 4 4 4 4 4 4 4 4 4 4 4 4 4 4 4 4 4 4 4 4 4 4 4 3 3 3 2 2 2 2 2 2 2 2 2 2 2 1 1 1 1 1 1 1 1 1 1 1 1 1 1 1 1 1 1 1 1 1 1 1 1 1 1 1 2 2 2 3 6 10 13 17 20 21 22 24 24 25 26 29 35 43 54 64 71 73 73 72 71 72 74 76 79 81 82 83
5 5 5 5 5 5 5 5 5 5 5 5 5 5 5 5 5 5 5 5 5 5 5 5 5 5 5 5 5 5 4 4 4 3 3 3 3 2 2 2 2 2 2 2 2 2 2 2 1 1 1 1 1 1 1 1 1 1 1 1 1 1 1 1 1 1 1 1 1 1 1 1 2 2 2 3 6 10 14 18 20 22 24 24 25 26 28 32 38 47 58 68 74 74 73 71 71 72 74 78 81 84 84
5 5 5 6 6 6 6 6 6 6 6 6 6 6 6 6 6 6 6 6 6 6 6 6 6 6 6 6 6 6 6 5 5 4 4 4 3 3 3 3 3 2 2 2 2 2 2 2 2 2 2 1 1 1 1 1 1 1 1 1 1 1 1 1 1 1 1 1 1 1 1 1 1 2 2 2 3 6 10 15 19 22 24 24 26 26 27 29 34 40 51 63 71 75 74 72 71 71 73 76 80 83 85
6 6 6 6 6 6 6 6 6 7 6 7 6 7 7 7 7 7 7 7 7 7 7 6 6 6 6 6 7 7 7 6 6 6 5 4 4 4 4 3 3 3 3 3 2 2 2 2 2 2 2 2 2 1 1 1 1 1 1 1 1 1 1 1 1 1 1 1 1 1 1 1 1 1 2 2 2 4 7 11 16 20 23 24 26 26 26 28 31 36 43 56 66 74 76 74 72 71 71 74 78 81 84
6 6 7 7 7 7 7 7 7 8 8 8 8 8 8 8 8 8 8 8 8 8 8 8 8 7 7 7 7 8 8 8 8 7 6 6 5 5 4 4 4 4 4 3 3 3 2 2 2 2 2 2 2 2 2 1 1 1 1 1 2 2 2 1 1 1 1 1 1 1 1 1 1 1 1 2 2 2 3 8 12 18 22 24 25 26 26 27 28 32 37 48 60 70 76 76 74 72 71 72 75 78 83
7 7 7 8 8 8 8 8 8 8 8 8 8 8 9 9 10 10 10 10 9 9 9 8 8 8 8 8 8 8 8 9 8 8 8 7 7 6 6 5 5 4 4 4 4 4 3 3 3 2 2 2 2 2 2 2 2 2 1 2 2 2 2 2 2 2 2 2 1 1 1 1 1 1 1 2 2 2 2 4 8 13 19 22 24 26 26 26 27 29 33 42 53 64 74 76 76 74 72 71 73 76 81
8 8 8 8 8 8 8 8 9 9 10 10 10 10 10 10 10 10 10 10 10 10 10 10 10 10 9 8 8 8 9 10 10 10 9 8 8 8 7 7 6 6 5 5 4 4 4 4 3 3 3 3 3 3 2 2 2 2 2 2 2 2 2 2 2 2 2 2 2 1 1 1 1 1 1 1 2 2 1 2 5 9 15 20 24 26 27 27 27 28 31 38 47 58 68 75 77 76 74 71 72 74 78
8 8 8 8 9 9 10 10 10 10 10 10 10 10 10 11 11 11 11 12 12 12 12 11 11 10 10 10 10 10 10 10 10 10 10 10 10 8 8 8 8 7 6 6 6 5 5 4 4 4 4 4 3 3 3 3 2 2 2 2 2 2 2 2 2 2 2 2 2 2 1 1 1 1 1 1 1 2 2 2 2 5 10 16 21 25 27 28 28 28 30 35 42 51 62 72 77 78 76 73 72 72 75
8 9 10 10 10 10 10 10 10 10 10 11 11 11 11 12 12 12 12 12 12 12 12 12 12 12 12 11 10 10 10 10 11 11 12 11 10 10 9 8 8 8 7 7 6 6 6 6 5 5 4 4 4 4 4 3 3 3 2 2 2 2 2 2 2 2 2 2 2 2 2 1 1 1 1 1 1 1 2 2 2 3 6 11 17 23 27 28 29 29 30 34 39 46 56 66 74 79 80 76 74 72 73
10 10 10 10 10 10 10 10 11 11 12 12 12 12 12 12 12 12 12 12 12 12 12 13 13 13 12 12 12 11 11 11 11 12 12 12 12 11 10 10 9 8 8 8 7 7 7 6 6 6 6 5 5 4 4 4 4 3 3 3 2 2 2 2 2 2 2 2 2 2 2 2 1 1 1 0 1 1 1 2 2 2 3 7 13 19 25 28 30 30 31 33 37 43 50 60 70 78 82 80 76 73 72
10 10 10 10 10 11 11 12 12 12 12 13 13 13 13 13 12 12 12 12 12 12 12 12 13 13 13 13 13 12 12 12 12 12 12 13 13 12 11 10 10 10 9 8 8 8 8 7 7 6 6 6 6 5 5 5 4 4 4 3 3 3 2 3 3 3 3 3 2 2 2 2 2 1 1 1 0 1 1 1 2 2 2 4 8 14 21 26 29 31 32 33 36 40 46 55 64 74 81 82 80 76 73
10 10 10 11 11 12 12 13 13 13 14 14 14 13 13 13 13 12 12 12 12 12 12 12 12 12 13 13 13 13 13 12 12 12 12 13 14 14 13 12 11 10 10 9 8 8 8 8 8 7 7 7 6 6 6 6 5 5 4 4 4 3 3 3 3 3 3 3 3 3 2 2 2 2 1 1 1 0 1 1 2 2 1 2 5 10 16 23 28 31 32 33 35 38 43 50 58 68 77 82 82 80 76
11 11 11 12 12 13 14 14 14 14 14 14 14 13 13 12 12 12 12 12 11 11 11 11 12 12 12 12 13 13 13 13 12 12 12 13 13 14 14 13 12 11 10 10 10 9 8 8 8 8 8 8 7 7 7 6 6 6 6 5 4 4 4 3 3 3 3 3 3 3 3 3 2 2 2 1 1 0 0 1 1 2 2 1 2 5 10 18 24 29 32 34 35 38 41 46 54 62 72 79 83 83 80
11 12 12 13 14 14 14 14 14 14 14 14 13 13 12 12 12 11 11 11 10 10 10 10 10 11 11 12 12 13 13 13 13 13 12 13 13 14 14 14 13 12 11 10 10 10 10 9 8 8 8 8 8 8 7 7 7 7 6 6 6 5 4 4 4 4 4 4 3 3 3 3 3 2 2 2 1 1 0 1 1 1 2 2 2 3 6 12 20 26 31 34 36 38 40 44 50 57 66 74 81 84 82
12 13 14 14 15 15 15 15 14 14 14 13 13 12 12 11 11 10 10 10 10 10 10 10 10 10 10 10 11 12 12 13 13 13 13 13 13 13 14 14 14 13 12 11 10 10 10 10 10 9 9 8 8 8 8 8 8 7 7 7 6 6 5 5 4 4 4 4 4 4 4 3 3 3 2 2 1 1 0 0 1 1 2 2 2 2 3 8 14 21 28 32 36 38 40 43 47 53 60 69 77 82 84
13 14 15 15 15 15 15 15 14 14 13 12 12 11 11 10 10 10 9 8 8 8 8 8 8 8 9 10 10 10 11 12 12 13 13 14 13 14 14 14 14 14 14 12 11 11 10 10 10 10 10 10 9 8 8 8 8 8 8 8 7 7 6 6 5 5 4 4 4 4 4 4 3 3 3 2 2 1 1 1 1 1 1 2 2 2 2 4 9 16 24 30 34 38 40 42 46 50 56 64 72 79 84
14 15 16 16 16 16 15 15 14 14 13 12 11 10 10 10 9 8 8 8 8 8 8 8 8 8 8 8 8 9 10 10 11 12 13 13 14 14 14 14 15 15 15 14 12 12 11 11 10 10 10 10 10 10 9 8 8 8 8 8 8 8 7 7 6 5 5 4 4 4 4 4 4 3 3 3 2 2 1 1 1 1 1 2 2 2 1 2 5 10 18 26 32 36 40 42 44 48 52 60 68 76 82
15 16 16 16 16 16 15 14 14 13 12 11 10 10 10 9 9 9 9 9 9 8 8 8 8 8 8 8 8 8 8 9 10 10 11 12 13 13 14 14 15 15 16 15 14 12 12 11 11 11 11 10 10 10 10 9 9 8 8 8 8 8 8 7 7 6 6 5 5 5 4 4 4 4 3 3 2 2 1 1 1 0 1 1 2 2 2 2 3 6 12 20 27 34 39 42 44 46 50 56 63 71 78
16 16 17 16 16 16 15 14 14 12 12 10 10 10 9 10 10 10 11 11 11 10 10 10 10 10 10 8 8 8 8 8 8 9 10 10 12 12 13 14 14 16 16 16 15 14 12 12 12 12 12 11 10 10 10 10 9 9 8 8 8 8 8 8 7 7 6 6 5 5 4 4 4 4 4 3 3 2 2 1 1 1 0 1 1 2 2 2 2 3 7 14 22 30 36 40 43 45 48 53 59 66 74
17 17 17 17 17 16 15 14 13 12 11 10 10 10 10 11 12 13 13 14 14 13 13 13 13 13 13 12 11 10 8 8 8 8 8 10 10 11 12 13 14 15 16 17 16 15 14 13 12 12 12 12 11 11 10 10 10 9 8 8 8 8 8 8 8 7 7 6 6 6 5 4 4 4 4 4 3 3 2 2 1 1 1 1 1 2 2 2 2 2 4 9 16 24 32 38 42 45 47 50 56 62 69
17 18 18 18 17 16 15 14 12 11 10 10 10 11 12 13 14 16 16 17 17 16 16 16 16 16 16 16 15 14 12 10 8 8 8 8 9 10 10 11 12 14 16 17 17 17 15 14 13 13 13 13 12 12 11 10 10 10 8 8 8 8 8 8 8 7 7 7 6 6 5 5 5 4 4 4 4 3 2 2 2 1 1 1 1 1 2 2 2 2 2 5 11 18 27 34 40 44 46 50 54 59 65
18 18 18 18 17 16 14 13 12 10 10 10 11 13 14 16 17 18 19 19 19 19 19 18 18 18 19 19 19 18 17 14 12 10 8 8 8 9 10 10 11 12 14 16 18 18 16 15 14 13 13 13 13 12 12 11 10 10 9 8 8 8 8 8 7 7 7 7 7 6 6 5 5 5 4 4 4 4 3 2 2 1 1 1 1 1 2 2 2 2 1 3 6 12 20 29 36 42 46 49 53 58 63
19 19 19 18 17 15 14 12 11 10 11 12 14 15 17 19 20 21 21 22 22 22 22 22 21 21 20 21 22 22 21 19 17 14 11 10 9 10 10 10 10 10 12 15 17 18 18 16 14 14 14 14 14 13 12 11 10 10 10 8 8 8 7 7 7 7 7 7 7 7 6 6 5 5 5 5 4 4 3 3 2 2 1 1 1 2 2 2 2 2 2 2 4 8 14 23 31 38 44 47 51 56 61
20 20 20 18 16 14 12 11 10 11 12 14 16 18 20 21 22 22 23 24 24 26 26 26 26 25 24 24 24 25 25 23 21 18 15 12 10 10 10 10 10 10 10 13 16 18 19 18 16 14 14 14 14 14 13 12 11 10 10 8 8 8 7 7 7 7 7 7 7 7 6 6 6 6 5 5 5 4 4 3 2 2 2 1 1 2 2 2 2 3 2 2 2 4 8 16 25 33 40 45 49 53 58
21 21 20 18 16 14 11 10 11 12 15 17 19 20 22 22 22 22 24 26 27 29 30 30 30 30 30 29 29 29 28 26 24 20 18 15 13 11 10 11 11 10 10 11 14 17 20 19 17 15 14 14 14 14 13 12 11 10 10 8 8 8 8 7 7 7 7 7 7 6 6 6 6 6 6 6 5 5 4 3 3 2 2 2 2 2 2 2 3 3 3 2 2 2 5 10 18 27 36 42 46 51 55
22 21 20 18 15 12 10 10 12 14 17 19 20 21 21 21 21 21 22 26 29 32 34 35 36 36 36 36 34 33 32 29 26 22 20 19 18 17 14 12 11 10 10 10 12 16 19 20 18 16 14 15 15 14 13 12 11 10 9 8 8 8 8 8 7 7 7 6 6 6 6 6 6 6 6 6 5 5 4 4 3 2 2 2 2 2 2 2 3 3 3 3 2 2 2 6 12 20 29 38 43 48 52
23 21 19 17 14 11 10 10 13 16 19 20 21 20 20 19 19 20 21 25 30 34 38 40 40 40 41 42 40 38 34 30 27 24 24 24 26 26 26 20 16 13 10 10 11 14 18 18 18 20 23 23 18 13 12 11 10 10 8 8 8 8 8 8 8 7 7 6 6 6 6 6 6 6 6 6 6 5 5 4 4 3 2 2 2 2 2 2 3 3 4 3 3 2 2 4 8 14 22 31 39 45 50
23 21 19 16 13 10 9 11 14 18 21 21 20 19 18 17 17 18 21 24 30 36 42 45 47 47 46 46 44 40 37 32 28 26 28 31 32 33 33 28 23 18 13 11 10 12 16 38 58 68 62 37 21 13 12 12 12 10 8 8 8 8 8 8 8 7 7 7 6 6 6 6 6 6 6 6 6 6 5 5 4 3 2 2 2 2 2 2 3 4 4 4 3 2 2 2 4 8 15 24 33 42 48
23 21 18 15 12 10 9 12 16 20 22 22 20 18 18 18 18 20 22 26 30 37 44 49 52 54 53 51 48 44 38 33 28 26 30 37 40 41 39 36 31 25 20 14 11 12 20 56 73 75 65 44 31 24 22 20 16 12 8 8 8 8 8 8 8 8 7 7 6 6 6 6 6 6 6 6 6 6 6 5 4 4 3 2 2 2 2 2 3 4 4 4 4 3 2 2 3 5 10 18 27 36 44
23 21 18 14 12 10 9 12 16 20 22 21 20 18 18 19 21 22 24 28 33 40 47 53 57 60 60 56 52 46 40 33 28 27 30 40 48 52 49 44 39 33 26 20 16 14 16 46 67 74 62 52 46 40 34 26 20 14 10 9 8 8 8 8 8 8 7 7 6 6 6 6 6 6 6 6 6 6 6 6 5 4 3 2 2 2 2 2 3 4 4 4 4 4 3 2 2 3 6 12 21 30 39
23 20 18 14 12 10 10 12 16 20 21 20 19 19 20 22 24 27 29 32 38 44 52 58 60 62 64 60 56 49 42 33 28 28 34 43 52 58 59 52 44 36 28 23 21 19 16 22 39 57 67 66 60 52 40 29 22 16 13 10 9 8 8 8 8 7 7 7 6 6 6 6 6 6 6 6 7 7 7 6 6 5 4 3 2 2 2 2 2 3 4 5 5 5 4 3 2 2 4 8 15 24 33
23 20 18 14 12 10 10 13 16 19 20 19 19 20 22 26 28 32 34 38 44 50 58 61 62 63 63 62 59 52 44 35 29 30 37 46 54 60 61 57 53 49 43 36 31 26 22 19 22 31 48 58 59 54 43 32 24 18 14 11 10 8 8 8 8 7 7 7 7 6 6 6 6 6 6 6 7 7 7 7 6 6 5 4 3 2 2 2 2 3 4 5 5 6 5 4 3 2 2 6 10 18 27
23 20 18 15 12 11 10 13 16 18 19 19 20 22 24 29 33 37 40 44 50 56 61 63 63 62 62 63 61 56 47 38 32 31 38 48 55 60 60 58 56 56 55 51 44 35 26 22 21 22 23 32 37 38 33 26 22 17 14 12 10 9 8 8 8 8 7 7 7 6 6 6 6 6 6 6 7 7 8 7 7 6 6 5 4 3 2 2 2 3 4 5 6 6 6 5 4 3 2 4 7 12 20
23 20 18 16 14 12 12 15 17 19 20 20 22 24 28 33 38 42 46 51 56 60 63 64 64 63 63 64 62 59 52 42 37 36 40 47 54 58 58 56 55 53 51 49 45 40 34 27 26 25 21 19 20 23 23 21 18 16 14 12 10 10 8 8 8 8 8 7 7 7 6 6 6 6 6 6 7 7 8 8 8 7 6 6 5 4 3 2 2 3 4 4 6 6 6 6 5 4 2 3 4 8 14
23 21 19 17 15 14 15 18 20 21 22 23 26 29 33 38 42 46 51 56 60 63 65 65 66 66 67 67 66 62 56 47 43 43 46 50 53 56 57 56 56 57 57 52 46 42 39 37 34 32 28 22 20 20 21 20 18 16 14 13 11 10 10 8 8 8 8 8 7 7 7 7 6 6 6 6 7 8 8 8 8 8 7 6 5 4 3 2 2 2 3 4 6 6 6 6 6 5 3 3 3 5 9
23 21 20 18 18 18 19 22 23 24 26 27 31 35 39 42 46 50 55 60 64 66 68 68 68 69 70 70 69 66 61 52 46 46 53 58 57 55 56 56 57 57 57 51 46 42 40 40 40 38 34 30 26 22 20 20 19 18 16 14 12 11 10 10 9 8 8 8 8 8 7 7 7 6 6 6 7 8 8 8 8 8 8 7 6 5 4 3 2 2 3 4 6 6 7 7 6 6 4 3 3 3 6
23 22 20 20 21 22 24 26 27 28 29 32 36 40 44 46 49 54 59 64 67 68 69 70 71 72 73 73 72 69 63 54 47 44 50 59 60 57 54 54 54 52 50 46 43 42 42 42 44 44 44 40 34 26 21 20 18 17 16 15 14 12 11 10 10 9 8 8 8 8 8 7 7 7 7 7 7 8 8 8 8 8 8 8 6 5 4 3 2 2 3 4 5 6 7 7 7 6 5 4 4 3 4
Wind_Speed
39 39 39 39 40 40 40 41 41 41 42 42 43 44 44 45 46 46 47 47 47 48 48 48 48 48 48 49 49 49 49 49 49 48 47 47 46 45 44 44 44 44 45 45 45 45 45 45 45 45 45 46 46 47 47 47 47 47 47 47 47 47 47 46 46 45 45 44 43 42 41 40 39 38 37 37 37 36 36 36 37 37 37 38 37 37 36 35 35 35 35 35 34 33 32 31 31 31 31 31 31 30 30
40 40 40 40 40 40 40 41 41 41 42 42 42 43 44 44 45 46 46 47 47 48 48 48 49 49 49 50 49 49 49 50 50 50 50 49 48 47 46 45 45 45 45 45 45 45 45 45 45 46 46 47 47 48 48 48 48 48 48 48 48 48 48 48 47 47 46 46 45 44 43 42 40 39 38 38 38 37 36 36 36 37 38 38 38 38 37 36 35 36 36 36 36 35 34 33 32 32 32 32 32 31 31
41 41 41 41 41 41 41 41 41 41 42 42 42 43 43 44 44 45 46 46 47 47 48 48 49 49 50 50 50 50 50 50 51 52 52 51 50 49 48 47 47 46 46 46 46 46 45 45 46 46 46 47 48 49 49 49 49 49 49 49 49 49 49 49 48 48 48 48 47 46 45 44 42 41 40 39 39 39 38 37 37 37 38 38 38 37 37 36 36 37 37 37 37 37 36 35 34 33 33 33 33 33 32
42 42 42 42 42 42 42 42 42 42 42 42 43 43 43 43 44 45 45 46 46 47 47 48 48 49 50 50 51 51 51 50 51 52 53 53 53 52 51 50 49 48 47 47 47 46 46 46 46 46 47 47 48 49 50 50 50 50 50 50 50 50 50 50 50 49 49 49 49 48 47 46 45 43 42 41 41 40 39 38 38 38 38 38 38 37 37 37 37 38 38 38 38 38 37 37 36 34 34 34 34 34 33
43 44 43 43 43 43 43 43 43 43 43 43 43 43 44 44 44 45 45 46 46 46 47 48 48 49 49 50 50 51 51 51 51 51 52 54 55 55 54 53 51 50 49 48 48 47 47 47 46 46 47 47 48 49 50 50 51 51 51 51 51 51 51 51 51 51 51 51 51 50 49 48 47 46 44 43 42 41 40 39 39 39 39 39 38 38 37 37 38 38 39 39 39 38 38 38 37 36 35 35 34 35 34
45 45 45 45 45 45 45 44 44 44 44 44 44 45 45 45 45 45 46 46 46 47 47 47 48 48 49 50 50 51 51 51 51 51 52 53 54 56 56 55 54 53 52 50 49 49 48 48 47 47 47 47 48 49 50 51 51 52 52 52 52 52 52 52 52 52 52 52 52 51 51 50 49 48 47 46 44 43 42 41 40 40 40 40 39 39 38 38 38 38 39 40 40 40 39 39 38 37 36 35 35 35 35
45 46 46 46 46 46 46 46 46 46 46 46 46 46 46 46 46 46 46 47 47 47 48 48 48 48 49 49 50 50 51 51 52 52 52 52 53 55 56 57 57 56 55 53 52 50 50 49 48 48 48 48 48 49 50 51 52 52 53 53 53 53 53 53 53 53 53 53 53 53 52 52 51 50 49 48 46 45 43 43 42 42 41 41 40 40 40 39 38 39 39 40 40 40 40 39 39 38 37 36 35 35 36
45 45 46 46 46 47 47 47 47 47 47 47 47 47 47 47 47 47 47 48 48 48 48 49 49 49 49 49 50 50 51 51 52 52 52 52 53 53 55 57 58 58 58 57 55 53 52 50 50 49 49 49 49 49 50 50 52 52 53 53 53 54 54 54 54 54 54 55 54 54 54 53 53 53 52 50 49 47 45 44 44 43 43 42 42 41 41 40 39 39 39 40 41 41 41 40 40 39 38 37 36 36 36
44 44 45 45 46 46 47 47 47 47 48 48 48 48 48 48 48 48 48 48 49 49 49 50 50 50 50 50 50 50 51 51 51 52 52 53 53 53 54 55 57 58 59 59 58 57 55 53 51 50 50 50 49 50 50 51 51 52 53 54 54 54 54 55 55 55 55 56 56 56 55 55 54 54 54 53 51 49 47 46 46 45 44 43 43 43 42 41 40 39 39 39 41 41 41 41 41 40 39 38 37 36 36
43 44 44 44 45 45 46 46 47 47 47 48 48 48 49 49 49 49 49 49 49 49 50 50 50 51 51 51 51 51 51 51 51 52 52 53 53 54 54 55 55 57 58 59 60 60 59 57 54 52 51 50 50 50 51 51 51 52 53 54 55 55 55 55 56 56 56 57 57 57 57 56 56 56 55 55 53 52 50 49 48 47 46 45 44 44 43 42 41 40 39 39 40 41 42 42 42 42 41 40 38 37 37
42 42 43 43 44 44 45 45 45 46 46 47 47 48 48 49 49 49 50 50 50 50 50 50 51 51 51 52 52 52 52 52 52 52 52 53 53 54 54 55 55 56 57 58 59 61 61 60 58 56 53 52 51 51 51 52 52 52 53 54 55 56 56 56 57 57 57 58 58 58 58 58 57 57 57 56 55 54 53 51 50 48 47 46 46 45 44 43 42 41 41 40 40 40 42 42 42 42 42 41 40 39 38
41 41 42 42 43 43 43 44 44 45 45 46 47 47 48 48 49 49 50 50 51 51 51 51 51 51 52 52 52 53 53 53 53 53 53 53 53 54 54 55 55 56 56 57 58 60 61 62 62 60 57 54 52 52 52 52 53 53 53 53 54 55 56 57 57 58 58 59 59 59 59 59 59 58 58 58 57 56 55 53 52 50 49 48 47 46 45 44 43 43 42 41 40 40 41 42 43 42 43 42 42 41 40
40 41 41 41 42 42 43 43 44 44 45 45 46 46 47 47 48 48 49 50 50 51 51 52 52 52 52 52 52 53 53 53 54 54 54 54 54 54 54 55 55 56 56 56 57 58 60 61 63 63 61 58 55 53 53 53 53 53 53 54 54 55 56 57 58 59 59 59 60 60 60 60 60 60 59 59 59 58 57 56 54 52 51 50 49 47 46 45 45 44 43 42 41 40 40 42 43 43 43 43 43 42 41
40 41 41 41 42 42 42 43 43 44 44 45 45 46 46 46 47 48 48 49 49 50 51 51 52 52 53 53 53 53 53 54 54 54 54 55 55 55 55 55 55 56 56 56 57 57 58 60 61 63 64 63 60 56 54 53 53 54 54 54 54 55 56 57 59 59 60 60 61 61 61 61 61 61 61 60 60 59 59 58 56 55 53 52 50 49 47 46 46 45 45 44 43 41 40 41 42 43 43 43 44 43 43
41 41 42 42 42 42 42 43 43 43 44 44 45 45 45 46 46 47 47 48 48 49 50 51 51 52 53 53 54 54 54 54 54 54 55 55 55 56 56 56 56 56 56 56 57 57 58 59 60 61 63 64 64 61 58 55 54 54 54 55 55 55 56 57 58 60 61 61 62 62 62 62 62 62 62 62 61 61 60 60 59 57 55 54 52 50 49 48 47 47 47 46 44 43 42 41 42 43 44 44 44 44 44
41 42 42 43 43 43 43 43 43 43 43 44 44 44 45 45 46 46 47 47 47 48 49 49 50 51 52 52 53 54 54 55 55 55 55 55 56 56 56 56 56 57 57 57 57 57 57 58 58 60 61 63 64 64 62 59 56 54 54 55 55 56 56 57 58 59 61 62 62 63 63 63 63 63 63 63 62 62 62 61 60 59 58 56 54 52 51 49 49 48 48 47 46 45 43 42 42 42 44 44 44 44 44
42 42 42 43 43 44 44 44 44 44 44 44 44 44 44 44 45 45 46 46 47 47 48 48 49 50 51 51 52 53 54 55 55 55 56 56 56 56 56 57 57 57 57 57 57 57 57 57 58 58 59 61 63 65 65 63 60 56 54 54 55 56 57 57 58 59 61 62 63 63 64 64 64 64 64 64 64 63 63 62 62 61 60 58 56 54 53 51 50 50 49 49 48 47 46 44 43 42 43 44 44 44 44
43 43 43 43 43 43 44 44 44 44 44 44 44 44 44 44 44 45 45 45 46 46 47 47 48 49 49 50 51 52 53 54 55 55 56 56 57 57 57 57 57 58 58 58 58 58 58 57 57 58 58 59 61 63 65 65 63 60 56 55 55 56 57 57 58 59 60 62 63 64 64 65 65 65 66 65 65 64 64 63 63 62 62 60 59 57 55 53 52 51 50 50 50 49 48 46 44 43 42 43 44 44 44
44 44 44 43 43 43 43 43 44 44 44 44 44 44 44 44 44 44 45 45 45 46 46 47 47 48 48 49 50 51 52 53 53 54 56 56 57 57 57 58 58 58 58 59 59 59 58 58 58 58 58 58 59 61 63 64 65 63 60 57 55 55 57 58 58 59 60 61 62 64 65 65 66 66 66 66 66 66 65 65 64 64 63 62 61 59 57 55 54 52 52 51 51 51 50 48 46 44 43 43 43 44 44
46 46 45 45 44 44 44 44 44 44 44 44 44 44 44 44 44 44 45 45 45 45 46 46 47 47 48 48 49 49 50 51 52 53 54 55 56 57 58 58 59 59 59 59 59 59 59 59 58 58 58 58 58 59 60 62 64 64 63 60 57 55 56 57 58 59 60 60 62 63 65 66 66 67 67 67 67 67 66 66 65 65 64 64 63 61 60 58 56 54 53 53 52 52 51 50 48 46 44 43 43 44 44
48 48 48 47 47 46 46 45 45 44 44 44 44 44 45 45 45 45 45 45 45 45 46 46 46 47 47 48 48 49 49 50 51 52 53 54 55 56 57 58 59 59 60 60 60 60 60 60 59 59 58 58 57 58 59 60 62 63 64 62 59 57 55 56 58 59 60 60 61 63 64 66 67 67 68 68 68 68 68 67 67 66 66 65 64 64 62 60 58 56 55 54 53 53 52 51 50 48 46 45 44 43 44
49 49 49 49 49 49 48 48 47 46 46 45 45 45 46 45 45 46 46 46 46 46 46 46 46 47 47 47 48 48 49 49 50 51 52 53 54 55 56 58 59 59 60 60 60 60 60 60 60 60 59 58 58 57 57 58 60 61 63 63 61 59 56 56 57 58 60 60 61 62 64 65 67 68 68 69 69 69 69 68 68 67 67 66 66 65 64 63 61 59 57 55 54 54 53 52 51 50 49 47 45 44 44
50 50 50 50 50 50 50 50 49 49 48 48 47 47 47 47 46 47 47 47 46 46 46 46 47 47 47 47 47 48 48 49 49 50 51 51 52 53 55 56 57 59 60 60 61 61 60 60 60 60 60 60 59 58 57 57 58 60 61 62 62 60 58 56 56 57 59 60 61 62 63 64 66 68 69 69 69 70 70 70 69 69 68 68 67 67 66 65 63 61 59 57 56 55 54 54 53 52 50 48 46 45 44
51 51 51 51 51 51 51 51 51 51 51 50 50 49 49 49 48 48 48 47 47 47 47 47 47 47 47 47 47 48 48 48 48 49 50 50 51 52 53 54 56 57 59 60 60 61 61 60 60 60 60 60 59 58 57 57 57 58 59 61 61 61 60 57 56 56 57 59 61 62 62 63 65 67 68 69 70 70 71 71 70 70 70 69 69 68 68 67 65 63 61 59 57 56 55 55 55 54 52 50 48 46 45
52 52 52 52 52 52 52 52 52 52 53 52 52 52 52 51 51 50 49 49 48 47 47 47 47 47 47 47 47 47 48 48 48 48 49 49 50 51 51 53 54 55 57 58 59 60 60 60 60 60 60 60 60 59 58 57 57 57 58 59 60 61 60 59 57 55 56 58 59 61 62 63 64 65 67 69 70 71 71 71 71 71 71 70 70 69 69 68 67 65 63 61 59 57 57 56 56 55 53 51 49 47 46
52 52 53 53 53 53 53 53 53 54 54 54 54 54 54 53 53 52 51 50 49 48 47 47 46 46 46 46 47 47 47 47 47 48 48 48 49 49 50 51 52 53 54 56 57 58 59 59 59 59 60 60 60 59 59 58 57 57 57 58 59 60 60 59 58 56 55 56 58 60 61 62 63 64 66 68 70 71 72 72 72 72 72 71 71 71 70 70 69 67 65 63 61 59 58 58 57 56 55 53 51 50 48
53 53 53 54 54 54 54 55 55 55 55 55 55 55 55 55 54 53 52 51 50 49 48 47 47 46 46 46 46 46 46 46 46 47 47 47 48 48 49 49 50 51 52 53 55 56 57 58 58 58 58 59 59 59 59 59 58 57 56 56 57 58 59 59 58 57 55 55 57 58 60 62 63 64 65 67 69 71 72 73 73 73 73 72 72 72 71 71 70 69 67 65 63 61 60 59 58 57 56 55 54 52 50
53 53 54 54 55 55 55 56 56 56 56 56 56 55 55 55 54 54 53 52 51 51 49 48 47 46 46 46 46 46 46 46 46 46 46 47 47 47 47 48 48 49 50 51 52 53 55 56 56 57 57 57 57 58 58 58 58 57 56 56 56 57 58 59 58 57 56 55 55 57 59 60 62 63 64 65 67 70 72 73 73 74 74 73 73 73 72 72 72 71 69 67 65 63 61 60 59 58 57 57 56 54 52
54 54 54 55 55 56 56 57 57 57 57 56 56 55 55 54 54 54 53 53 52 51 50 49 49 47 46 46 45 45 45 45 45 45 46 46 46 46 46 47 47 48 48 49 50 51 52 53 54 55 55 56 56 56 57 57 57 57 56 55 55 56 57 57 58 57 56 54 54 55 57 59 61 62 63 64 66 68 70 72 74 74 74 74 74 74 73 73 73 72 71 69 67 65 63 62 60 59 59 58 57 56 54
55 55 55 56 56 57 57 57 57 57 57 56 56 55 55 54 53 53 53 52 52 51 51 50 49 48 48 47 46 45 45 45 45 45 45 45 45 45 46 46 46 47 47 48 48 49 50 51 52 53 54 54 54 55 55 56 56 56 55 55 54 55 55 56 57 57 56 55 53 53 55 57 59 61 63 64 65 66 68 71 73 75 75 75 75 75 74 74 74 73 72 71 69 67 65 63 62 61 60 59 59 58 56
56 56 56 57 57 57 57 58 57 57 57 56 55 55 54 53 53 52 52 52 51 51 51 50 50 49 48 48 47 46 46 45 45 45 45 45 44 45 45 45 46 46 46 47 47 48 48 49 50 51 52 53 53 53 53 54 55 55 55 54 54 54 54 54 55 56 56 55 53 52 52 55 57 59 61 63 64 65 67 69 72 74 75 76 76 75 75 75 75 74 73 72 71 69 67 65 63 62 61 60 60 59 58
57 57 57 58 58 58 58 58 57 57 56 56 55 54 54 53 52 52 51 51 51 51 51 50 50 50 49 48 48 47 46 45 45 45 45 45 45 44 45 45 45 45 46 46 46 46 47 48 48 49 50 51 51 52 52 52 53 53 53 53 53 53 53 53 54 54 55 54 53 52 51 52 55 57 60 62 63 64 65 67 70 73 75 76 76 76 76 76 75 75 74 73 72 71 69 67 65 63 62 61 61 60 60
57 58 58 58 58 58 58 58 57 57 56 55 55 54 53 52 52 51 51 50 50 50 50 50 50 50 49 49 48 48 47 46 46 45 45 45 45 45 45 45 44 45 45 45 45 45 46 46 47 47 48 49 50 50 51 51 51 51 52 52 52 52 52 52 52 53 54 54 53 52 50 50 52 55 58 60 62 63 64 66 68 71 74 76 76 76 76 76 76 76 75 74 73 72 71 69 67 65 64 63 62 61 61
58 58 58 58 58 58 57 57 57 56 56 55 55 54 54 53 52 51 51 50 50 49 49 49 49 49 49 49 49 48 48 47 46 46 45 45 45 45 45 45 45 45 44 44 44 45 45 45 45 46 47 47 48 49 49 50 50 50 50 50 51 51 51 51 51 51 52 53 53 52 50 49 49 52 55 58 60 62 63 64 66 68 71 74 76 77 77 77 77 76 76 75 74 73 72 71 69 67 65 64 63 62 62
58 58 58 58 58 57 57 57 56 56 56 56 55 55 54 54 53 52 51 50 50 49 49 49 49 49 49 49 49 48 48 48 47 46 46 45 45 45 45 45 45 45 44 44 44 44 44 44 44 45 45 46 46 47 47 48 48 48 49 49 49 50 50 50 50 50 51 52 52 52 51 49 48 49 52 56 58 60 62 63 64 66 69 72 75 77 77 77 77 77 77 76 75 74 73 72 71 69 67 65 64 63 63
58 58 58 58 57 57 57 57 57 57 56 56 56 56 55 55 54 53 52 51 50 50 49 48 48 48 48 48 48 49 48 48 47 47 46 46 45 45 45 45 45 45 44 44 44 43 43 43 43 44 44 44 45 45 46 46 47 47 47 47 48 48 49 49 49 49 50 50 51 51 51 49 47 47 49 53 56 58 60 61 63 64 66 70 73 76 77 78 78 78 77 77 76 75 74 73 72 70 69 67 65 64 64
58 58 57 57 57 57 57 57 57 57 57 57 57 56 56 55 55 54 53 52 51 50 49 49 48 48 48 48 48 48 49 48 48 48 47 46 46 45 45 45 46 45 45 44 44 43 42 42 42 43 43 43 43 44 44 45 45 45 46 46 46 47 47 48 48 48 49 49 50 50 50 49 47 46 47 50 54 56 58 60 61 63 64 67 71 74 77 78 78 78 78 77 77 76 75 74 73 72 70 69 67 66 65
57 57 57 57 57 57 57 57 58 58 58 58 57 57 57 56 56 55 54 53 52 51 50 49 48 48 47 47 48 48 48 49 49 48 48 47 46 46 46 45 45 45 45 45 44 43 42 42 42 42 41 42 42 43 43 43 43 44 44 44 45 45 45 46 47 47 48 48 49 49 49 49 48 46 45 47 50 54 57 58 60 61 63 65 68 72 75 77 78 79 79 78 77 77 76 75 74 73 72 70 69 67 66
57 57 57 57 57 57 58 58 58 58 58 58 58 58 57 57 56 55 54 53 52 51 50 50 49 48 48 47 47 48 48 48 49 49 49 48 47 47 46 46 45 45 45 45 44 43 43 42 42 41 41 41 41 42 42 42 42 43 43 43 43 44 44 44 45 46 47 48 48 48 49 49 48 47 44 44 46 50 54 57 59 60 61 63 66 69 73 76 78 79 79 79 78 77 76 76 75 74 73 72 70 69 68
57 57 57 57 58 58 58 59 59 59 59 59 59 58 57 56 56 55 54 52 51 50 49 49 49 48 48 47 47 47 48 48 48 49 49 49 48 48 47 46 45 45 45 44 44 43 43 42 41 40 40 40 41 41 41 41 41 41 42 42 42 42 43 43 44 45 46 46 47 47 48 49 49 47 44 42 43 47 51 55 57 59 60 62 64 67 70 74 77 79 79 79 78 78 77 76 75 75 74 73 72 70 69
56 57 57 57 58 58 59 59 59 59 59 59 58 58 56 55 54 52 51 50 49 48 47 47 47 47 47 47 47 47 48 48 48 49 49 49 49 49 48 47 46 45 45 44 44 43 43 42 41 40 40 40 40 40 39 40 40 40 41 41 41 41 42 42 43 44 44 45 46 47 48 48 48 47 44 42 41 44 48 52 55 58 59 61 62 64 67 71 75 77 79 79 79 78 78 77 76 75 75 74 73 71 70
56 57 57 57 58 59 59 60 60 59 59 58 57 56 54 52 50 48 47 47 46 46 45 44 44 45 45 46 46 47 47 48 48 48 49 49 49 49 48 47 46 45 44 44 44 43 43 42 41 40 39 39 39 39 39 39 39 39 39 39 40 41 41 41 42 42 43 44 45 46 47 48 47 46 44 42 40 41 45 49 53 56 58 60 61 63 65 68 72 75 78 79 79 79 78 77 77 76 75 74 74 72 71
56 56 57 58 58 59 59 59 59 59 58 57 55 53 50 48 46 44 43 43 43 43 43 42 42 43 44 44 45 45 46 47 48 48 49 49 49 49 49 48 47 46 44 44 43 43 42 41 40 39 39 38 38 38 38 38 38 38 38 39 39 39 40 40 40 41 42 43 44 46 46 47 46 46 44 42 40 40 42 47 51 54 57 58 60 61 63 65 69 72 76 78 79 79 79 78 77 76 76 75 74 74 72
56 56 57 58 59 59 59 59 59 58 56 54 51 49 46 44 42 41 41 41 42 42 42 42 42 42 43 44 44 45 45 46 47 48 49 49 49 49 48 48 47 46 45 43 43 42 42 41 40 39 38 38 38 38 38 37 37 37 38 38 38 38 39 39 39 39 40 42 43 44 45 46 46 45 44 42 40 39 41 44 48 52 55 57 58 60 61 63 66 70 73 76 78 79 79 78 77 77 76 75 75 74 73
56 57 57 58 59 59 59 58 57 55 53 50 47 44 42 41 40 40 40 41 41 42 43 43 43 43 44 45 45 46 45 46 46 47 48 49 49 49 48 48 47 46 45 43 42 42 41 40 39 38 38 37 37 37 37 36 36 37 37 37 37 38 38 38 38 38 39 40 42 43 44 45 45 44 43 42 40 40 40 43 46 49 53 55 57 58 60 61 64 67 70 74 77 78 79 78 78 77 76 75 75 75 74
56 57 58 58 59 58 58 57 55 52 49 46 43 41 40 39 39 40 41 41 42 43 43 44 44 44 44 45 46 47 47 47 46 46 47 48 49 49 49 48 47 46 45 43 42 41 40 39 38 38 37 37 36 36 36 36 36 36 36 37 37 37 37 37 37 37 38 39 40 42 43 44 44 43 43 42 41 40 40 41 44 46 50 53 56 57 59 60 62 64 67 71 74 76 78 78 78 77 76 75 75 74 74
57 57 58 58 58 57 56 54 52 49 45 42 40 39 39 39 39 40 41 43 44 44 45 45 45 46 46 46 46 47 48 48 48 47 47 47 48 48 48 48 47 46 44 43 41 40 39 38 37 36 36 36 35 35 35 35 35 36 36 36 37 36 36 36 36 36 37 38 39 41 42 42 42 42 42 41 41 40 40 40 41 44 48 51 54 56 58 59 60 62 65 68 71 74 76 78 78 77 77 76 75 74 74
57 58 58 58 57 56 54 51 48 44 41 39 38 38 38 39 40 41 42 43 45 45 46 46 46 47 47 47 47 47 48 48 49 48 48 47 47 47 47 47 46 45 44 42 41 39 38 36 36 35 35 34 34 34 34 35 35 36 36 36 35 35 35 35 35 35 36 37 38 39 40 41 41 41 41 41 41 40 40 39 40 42 46 50 53 55 56 58 59 61 62 65 68 71 74 76 77 77 77 76 75 75 74
57 58 58 57 56 54 51 48 44 40 38 37 36 37 38 39 40 41 42 44 45 46 47 47 48 48 48 48 48 48 48 49 49 49 48 47 47 46 46 46 46 45 43 41 39 38 36 34 34 33 33 32 32 33 34 35 35 35 35 34 34 34 35 35 35 35 35 36 37 38 39 39 40 40 40 40 40 40 40 39 38 40 43 47 51 53 55 57 58 59 60 62 65 68 72 75 76 77 77 76 76 75 74
57 57 57 56 54 51 48 44 40 37 35 35 35 36 38 39 40 41 43 44 46 47 48 49 49 49 49 49 48 48 48 48 49 49 48 47 47 46 46 46 45 44 41 39 37 35 33 31 30 30 30 29 30 32 35 35 34 33 33 33 33 34 34 34 34 34 34 35 36 37 37 38 38 39 40 40 40 40 39 38 37 38 41 45 49 52 54 55 56 58 59 61 63 66 69 72 74 76 76 76 76 75 74
57 57 56 54 51 48 44 40 37 35 34 34 35 36 38 39 41 42 43 45 46 48 49 50 50 50 49 48 48 48 48 48 48 47 47 46 45 45 45 46 45 44 42 39 35 31 28 25 24 23 24 27 31 34 35 34 32 31 31 32 32 33 33 33 33 33 33 34 35 35 35 36 37 38 39 39 39 39 38 37 37 37 39 43 47 50 52 53 55 56 57 59 61 63 66 69 72 74 75 76 76 75 74
57 56 54 51 49 45 41 37 34 33 33 35 36 37 38 40 41 42 44 45 47 48 50 51 51 51 49 48 47 47 47 47 47 46 44 44 43 43 42 43 43 43 43 40 35 28 19 13 13 17 23 28 32 34 33 31 30 30 31 31 31 32 32 32 32 32 33 34 34 34 34 35 36 37 38 38 38 38 37 37 36 36 38 41 44 48 50 52 53 54 56 57 59 60 63 66 69 72 74 75 76 75 74
55 54 52 49 46 42 38 34 32 32 33 35 37 39 40 41 42 43 45 46 48 49 50 51 50 50 49 47 47 46 46 46 45 44 42 41 41 41 40 40 39 40 39 38 33 26 16 12 15 20 24 28 31 31 30 29 29 29 29 29 30 30 31 31 32 32 32 33 34 34 33 34 35 36 36 37 37 37 37 36 36 35 36 38 42 45 48 50 51 53 54 55 57 58 60 63 66 69 72 74 75 75 74
54 52 49 46 43 39 35 32 31 31 33 35 38 39 41 42 43 44 46 47 49 50 51 51 49 48 47 46 46 46 46 45 44 43 40 38 38 38 38 37 37 36 36 35 33 28 22 19 20 22 25 27 28 29 28 28 28 28 27 27 28 29 29 30 31 31 32 33 33 32 32 33 34 34 35 36 36 36 36 35 35 35 35 36 40 43 46 48 49 51 52 53 55 56 58 61 64 68 71 73 75 75 74
53 50 47 44 41 37 34 31 30 31 33 36 38 40 42 43 44 45 46 48 50 51 52 50 48 45 44 45 45 46 46 45 43 41 38 36 35 34 35 35 35 35 34 32 30 29 27 24 24 24 25 26 26 27 27 27 27 26 25 26 26 27 28 29 30 31 32 32 32 31 31 32 33 33 34 35 35 35 35 35 34 34 34 35 38 41 44 47 48 49 50 51 53 54 56 58 62 66 69 72 73 74 74
51 49 45 42 39 36 32 30 29 31 33 36 38 41 42 44 45 46 47 49 51 51 51 49 46 43 42 43 44 45 45 45 43 40 37 34 32 31 31 31 31 32 32 31 30 28 26 24 24 27 27 27 26 26 26 26 25 25 24 25 25 26 27 29 30 30 31 31 30 30 30 31 31 32 33 34 34 34 34 34 34 33 33 34 36 39 43 45 46 47 48 49 51 53 54 56 59 63 67 69 71 73 73
50 47 44 41 38 35 32 30 29 31 33 36 39 41 43 44 45 47 48 50 51 50 49 47 44 42 42 42 43 44 45 44 42 39 36 33 31 30 29 28 27 27 28 29 29 28 26 24 24 26 28 28 27 26 26 26 25 25 24 24 25 26 27 28 29 29 29 29 29 29 30 30 31 31 32 32 32 32 33 33 33 33 33 33 35 38 41 43 45 45 46 47 49 51 53 54 57 60 64 67 69 71 72
49 46 43 40 37 34 31 29 29 31 34 37 40 42 43 45 46 48 49 50 50 49 47 44 43 42 41 42 43 43 43 43 41 38 36 33 30 28 27 26 25 24 25 25 26 26 25 23 23 24 26 26 27 26 25 25 25 25 24 24 24 25 26 26 27 27 28 28 28 29 29 30 30 30 31 31 31 32 32 32 32 32 32 33 34 36 39 41 43 43 44 45 47 49 51 52 54 57 60 63 66 68 69
47 45 42 40 37 34 31 29 30 31 34 37 40 42 44 45 47 48 49 49 48 46 45 43 42 42 42 42 42 42 42 41 39 37 35 33 30 27 26 25 23 23 23 23 23 22 22 22 22 22 22 23 23 23 22 23 24 24 23 23 23 24 24 25 25 25 26 27 27 28 29 29 29 30 30 30 30 31 31 31 31 31 32 32 33 34 37 39 41 41 42 43 44 47 49 51 52 55 57 60 62 64 66
46 44 41 39 36 33 31 30 30 32 35 38 40 42 44 45 47 48 49 48 46 44 43 42 42 42 41 41 41 41 41 40 38 36 34 32 30 27 24 23 22 22 21 21 21 20 19 19 19 19 19 21 21 20 19 21 22 22 22 22 22 22 23 23 23 24 24 25 26 27 28 28 29 29 29 29 29 30 30 30 30 30 31 31 32 33 35 37 39 39 40 41 43 45 47 49 51 52 54 56 58 60 62
45 43 40 38 36 33 31 30 31 32 35 38 40 42 43 45 47 48 48 47 45 43 42 41 41 41 41 41 40 40 39 39 37 34 32 31 30 27 23 21 20 20 20 20 19 18 17 16 16 16 17 18 19 19 20 20 20 20 21 21 21 21 21 21 22 22 23 24 25 26 27 27 28 28 28 28 29 28 28 29 29 30 30 31 31 32 34 36 37 38 38 39 41 43 45 47 49 50 51 52 54 56 59
Wind_Direction
309 308 307 306 305 304 303 302 301 301 300 299 298 297 296 296 295 294 293 292 291 290 289 288 286 286 285 284 284 284 283 282 281 279 278 276 275 274 272 271 269 267 266 264 262 260 258 256 254 252 250 249 248 247 245 245 244 244 244 243 242 242 241 241 240 240 240 240 241 241 241 240 239 238 237 238 238 239 241 241 241 241 241 241 241 241 240 240 240 240 239 238 237 237 236 234 233 231 230 229 229 228 228
310 309 308 307 306 305 304 303 302 301 300 299 298 297 296 295 295 294 293 292 291 290 289 288 287 286 285 284 283 282 282 282 281 280 278 277 275 274 273 271 270 268 267 265 263 261 259 257 255 253 251 250 248 247 246 244 244 243 243 242 242 241 241 241 240 240 240 240 240 240 240 240 239 238 237 237 237 237 239 240 240 240 240 240 241 240 240 238 238 238 238 238 237 236 235 234 233 231 230 229 228 228 228
311 310 309 308 307 306 305 304 303 302 300 299 298 297 296 295 294 294 293 292 291 290 289 288 287 286 285 284 283 282 281 281 281 281 279 278 276 274 273 271 270 268 267 266 264 262 260 258 256 253 251 250 249 248 246 245 243 242 242 242 241 241 241 240 240 240 240 239 239 239 240 240 239 238 237 236 236 236 237 238 238 238 238 238 239 239 239 238 237 237 237 237 237 236 235 234 233 232 230 229 228 228 228
312 311 310 309 308 307 306 305 304 303 302 300 299 298 297 296 295 294 293 292 291 290 289 288 288 287 286 284 283 282 281 280 280 280 280 279 277 275 273 272 270 269 268 266 265 263 261 259 257 255 252 251 249 248 247 245 244 242 241 241 241 240 240 240 240 239 239 239 239 239 239 239 239 239 237 236 235 235 235 236 237 237 237 237 237 238 238 238 237 237 236 236 236 235 235 234 233 232 230 229 228 228 227
314 313 312 311 310 309 308 307 305 304 303 302 301 299 298 297 296 294 293 292 291 290 289 288 287 286 285 285 284 283 281 280 279 278 279 278 278 276 274 272 271 270 268 267 265 263 262 260 258 256 254 252 250 248 247 246 244 243 241 240 240 240 240 240 239 239 239 239 239 238 238 238 239 238 238 236 235 234 234 235 236 236 236 235 235 236 236 236 236 236 236 236 236 235 234 234 233 232 231 229 228 227 227
315 314 313 312 311 310 309 308 307 306 305 303 302 301 299 298 297 296 294 293 292 291 289 288 287 286 285 284 284 283 282 281 279 278 277 277 277 276 275 273 272 270 269 267 266 264 262 260 258 257 255 253 251 249 248 246 245 243 242 240 239 239 239 239 239 238 239 239 238 238 238 238 238 238 238 237 236 234 234 234 235 235 235 234 234 234 234 234 234 235 235 236 236 235 235 234 233 232 232 231 229 228 227
315 315 314 313 312 311 310 309 308 307 306 305 303 302 301 299 298 297 295 294 293 292 290 289 288 286 285 284 283 282 282 281 280 278 277 276 276 275 275 274 273 271 269 268 267 265 263 261 259 257 255 253 252 250 248 247 245 244 242 241 239 238 238 238 238 238 238 238 238 238 237 237 237 237 237 237 236 235 234 233 234 234 234 234 233 232 232 232 232 233 234 235 235 235 235 234 233 232 231 231 230 229 228
315 314 313 313 312 311 310 309 308 307 306 305 304 302 301 300 298 297 296 295 293 292 291 290 288 287 286 285 283 282 281 280 280 279 278 276 275 274 274 274 273 272 270 269 267 266 265 262 260 258 256 254 252 251 249 247 246 244 243 241 240 238 237 237 237 237 237 238 238 237 237 237 237 237 237 237 236 235 234 233 233 233 234 233 233 232 231 231 231 232 233 234 234 234 235 234 233 232 231 230 230 230 229
314 313 312 311 311 310 309 309 308 307 306 305 303 302 301 300 298 297 296 294 293 292 291 290 289 287 286 285 284 283 281 280 279 278 277 276 275 274 273 273 272 272 271 270 268 267 265 264 262 259 257 255 253 251 250 248 246 245 243 242 240 239 237 236 236 236 236 237 237 237 237 236 236 236 236 236 236 235 234 233 233 233 233 233 232 232 231 230 230 230 231 233 233 233 233 234 233 233 231 230 230 230 229
312 311 311 310 309 308 308 307 306 305 304 303 302 301 300 299 298 297 295 294 293 291 290 289 288 287 286 285 284 283 282 280 279 278 277 276 275 274 273 272 271 271 271 270 269 268 266 265 263 261 258 256 253 252 250 249 247 246 244 243 241 239 238 236 235 235 235 236 236 236 236 236 236 236 236 236 236 235 234 233 233 232 232 232 232 232 231 231 230 230 231 232 233 233 233 233 233 232 232 231 230 229 229
311 310 309 309 308 307 306 305 304 303 302 302 301 300 299 298 297 296 295 294 292 291 290 289 287 286 285 284 284 283 282 281 280 278 277 276 275 274 273 272 271 270 270 269 269 268 267 266 264 262 260 258 255 252 250 249 248 246 245 243 242 240 238 236 235 234 234 235 235 236 236 236 235 235 235 235 235 235 235 234 233 232 232 232 232 232 231 231 230 230 231 231 232 233 233 233 233 232 232 231 230 229 229
311 310 309 308 307 306 305 304 303 302 301 300 299 298 297 296 295 295 294 293 292 291 290 289 287 286 285 284 283 282 281 280 280 279 277 276 275 274 273 272 271 270 269 269 268 268 267 266 265 263 261 259 257 254 252 249 248 246 245 244 242 241 239 237 236 234 234 234 234 235 235 235 235 235 235 235 235 235 235 234 233 233 232 232 232 231 231 231 230 230 230 231 231 232 233 233 233 232 232 231 230 230 229
312 311 310 308 307 306 305 304 302 301 300 299 297 296 295 294 293 292 292 291 290 290 289 288 287 286 285 284 282 281 281 280 279 278 277 276 275 274 273 272 271 270 269 268 268 267 267 266 265 264 263 261 259 256 253 251 249 247 245 244 243 241 240 238 236 235 234 233 233 234 234 234 234 234 234 234 234 234 234 234 234 233 232 232 231 231 231 230 230 230 230 231 231 231 232 233 232 232 232 231 230 230 229
313 312 310 309 308 307 305 304 303 301 300 298 297 296 294 293 292 291 290 289 288 288 287 287 286 285 284 283 282 281 280 279 278 278 277 276 275 274 273 272 271 270 269 268 267 267 266 266 265 265 264 262 261 258 255 253 250 248 246 245 243 242 240 239 237 235 234 233 233 233 233 233 234 234 234 233 233 234 234 234 234 233 233 232 231 231 230 230 230 230 230 230 230 231 231 232 232 232 231 231 231 230 230
314 313 312 311 309 308 306 305 303 302 300 299 298 296 295 293 292 291 289 288 287 286 286 285 284 284 283 282 282 281 280 279 278 277 277 276 275 274 274 273 271 270 269 268 267 266 266 265 265 264 264 263 262 260 258 255 252 249 247 245 244 242 241 239 238 236 235 233 233 233 233 233 233 233 233 233 233 233 233 233 233 233 233 232 231 231 230 229 229 229 230 230 230 230 230 231 231 232 231 231 231 230 230
315 314 313 312 311 310 308 307 305 304 302 300 299 297 296 295 293 292 290 289 287 286 285 284 283 282 282 281 280 280 279 278 278 277 276 276 275 274 274 273 272 271 270 268 267 266 265 265 264 264 264 263 262 261 260 257 254 251 248 246 244 243 241 240 238 237 235 234 233 232 232 232 232 232 233 232 232 232 232 232 232 233 233 232 232 231 229 229 228 229 229 229 229 230 230 230 230 231 231 230 230 230 230
317 316 315 313 312 311 310 309 307 306 304 303 301 299 298 296 295 293 292 290 289 287 286 284 283 282 281 280 279 279 278 277 277 276 276 275 275 274 273 273 272 271 270 269 268 267 265 264 264 264 263 263 262 262 261 260 257 254 250 248 245 243 242 241 239 238 236 235 233 233 232 232 232 232 232 232 232 232 232 232 232 232 232 232 232 231 230 229 228 228 228 229 229 229 229 229 229 230 230 230 229 229 230
318 317 316 315 314 313 311 310 309 308 307 305 304 302 300 299 297 296 294 293 291 289 288 286 284 283 282 280 279 278 277 276 276 275 275 274 274 274 273 273 272 271 271 270 269 267 266 265 264 263 263 263 262 262 261 261 260 257 254 250 247 244 243 241 240 238 237 235 234 233 232 232 231 231 231 231 231 231 231 231 231 231 232 232 232 232 231 229 228 227 228 228 228 228 228 228 228 229 229 229 229 229 229
320 319 318 316 315 314 313 312 311 310 309 307 306 305 303 302 300 298 297 295 294 292 290 288 286 285 283 281 280 279 277 276 275 275 274 273 273 273 273 272 272 271 270 270 269 268 267 266 265 263 263 262 262 262 261 261 260 260 258 254 249 246 244 242 240 239 238 236 235 233 232 232 231 231 231 231 231 231 231 231 230 230 231 231 232 232 231 230 228 227 227 227 227 228 228 228 228 228 228 228 229 229 229
321 320 319 318 317 316 315 313 312 311 310 309 308 307 305 304 303 301 299 298 296 294 293 291 289 287 285 283 281 280 278 277 275 274 274 273 272 272 272 272 272 271 270 270 269 268 267 266 265 264 263 262 262 262 262 261 260 261 260 258 254 249 246 243 241 240 238 237 236 234 233 232 232 231 231 230 230 230 230 230 230 230 230 230 231 231 231 230 229 228 227 227 227 227 227 228 228 228 228 227 227 228 228
323 322 321 320 319 318 317 316 314 313 312 311 310 309 307 306 305 304 302 300 298 297 295 293 291 289 287 285 283 281 279 278 276 275 274 273 272 271 271 271 271 271 270 270 269 268 267 267 266 265 263 262 262 262 262 261 261 260 261 261 258 254 248 245 242 241 239 238 236 235 234 233 232 231 231 230 230 230 230 230 229 229 229 229 230 230 231 230 229 228 227 226 226 227 227 227 228 228 227 227 226 227 227
324 323 322 322 321 320 319 318 317 316 314 313 312 311 309 308 307 306 304 303 301 299 297 295 293 291 289 287 285 283 281 279 277 276 274 273 272 271 270 270 270 270 270 270 269 268 268 267 266 265 264 263 262 261 261 262 261 261 260 261 261 258 253 248 244 242 240 239 237 236 235 233 232 231 231 230 230 229 229 229 229 229 229 229 229 229 230 230 230 229 227 226 226 226 226 227 227 227 227 227 226 226 226
325 324 323 323 322 321 320 320 319 318 317 316 315 313 312 311 309 308 306 305 303 301 299 297 295 293 291 290 287 285 283 281 279 277 275 274 272 271 270 269 269 269 269 269 269 268 268 267 267 266 265 264 262 261 261 261 261 261 260 260 261 261 258 253 248 244 241 239 238 237 235 234 233 232 231 230 230 229 229 229 229 228 228 228 228 228 229 229 230 229 228 227 226 226 226 226 227 227 227 227 226 225 225
326 325 324 324 323 322 322 321 320 319 319 318 317 316 314 313 312 310 308 307 305 303 301 299 297 295 293 291 289 287 285 283 281 279 277 275 274 272 271 270 269 268 268 268 268 268 268 267 267 266 265 264 263 262 261 261 261 261 261 260 260 261 261 258 253 247 243 241 239 238 236 235 234 233 232 231 230 229 229 229 228 228 228 228 228 228 228 229 229 229 228 227 226 225 225 226 226 226 227 226 226 226 225
326 326 325 325 324 323 323 322 322 321 320 319 319 317 316 315 314 312 310 308 307 305 303 300 298 296 294 292 290 288 286 284 282 280 279 277 276 274 272 271 270 269 268 267 267 267 267 267 267 266 266 265 264 263 261 261 260 261 261 260 260 260 261 261 257 252 246 243 240 238 237 236 235 233 232 231 230 230 229 228 228 228 228 227 227 227 227 228 228 228 228 227 226 226 225 225 226 226 226 226 226 226 225
327 326 326 325 325 325 324 323 323 322 321 320 320 319 317 316 315 314 312 310 308 306 304 302 299 297 295 293 290 288 287 285 283 281 280 278 277 275 274 272 271 270 269 268 267 267 267 267 267 267 266 265 264 263 262 261 260 260 260 261 260 260 260 261 260 257 251 246 242 240 238 237 236 234 233 232 231 230 229 228 228 228 227 227 227 227 227 227 227 228 228 227 227 226 225 225 225 225 226 226 226 226 225
327 327 327 326 326 325 325 324 324 323 322 321 320 319 318 317 316 315 313 311 310 308 306 303 301 298 296 294 291 289 287 286 284 282 280 279 277 276 275 273 272 271 270 269 268 267 267 267 267 267 267 266 265 264 263 261 260 260 260 260 260 260 259 260 261 260 256 250 245 242 239 238 236 235 234 233 231 230 229 229 228 228 227 227 227 226 226 226 227 227 227 227 226 226 225 225 225 225 225 225 225 225 225
328 328 327 327 326 326 325 324 324 323 322 322 321 320 319 318 317 315 314 313 311 309 307 305 302 300 297 295 293 290 288 286 284 283 281 280 278 277 275 274 273 271 270 269 268 267 267 267 267 267 267 267 266 265 263 262 261 260 260 260 260 260 259 259 260 261 260 255 249 245 242 239 237 236 235 234 232 231 230 229 228 228 227 227 227 226 226 226 226 226 226 227 226 226 225 225 225 225 225 225 225 225 225
328 328 328 327 326 326 325 325 324 323 322 322 321 320 319 318 317 316 314 313 312 310 308 306 304 302 299 297 294 292 290 288 286 284 282 280 279 277 276 274 273 272 271 270 269 268 267 267 267 267 267 267 266 266 264 263 262 261 260 260 260 260 259 259 259 260 261 259 254 248 244 241 239 237 236 234 233 232 231 229 229 228 227 227 227 226 226 226 226 226 226 226 226 226 225 225 224 224 224 224 225 225 225
328 328 328 327 326 326 325 325 324 323 322 322 321 320 319 319 318 316 315 314 312 311 309 307 305 303 301 299 296 294 291 289 287 285 282 281 279 278 277 275 273 272 271 270 269 268 268 267 267 266 267 267 266 266 265 264 263 261 260 260 260 260 259 259 259 259 260 260 258 253 247 243 241 238 237 235 234 233 231 230 229 228 227 227 227 226 226 226 225 225 225 226 226 226 226 225 225 224 224 224 224 224 225
329 328 328 327 327 326 325 325 324 323 323 322 321 320 320 319 318 317 315 314 313 311 309 308 306 304 302 300 298 296 293 291 288 286 283 282 280 278 277 275 274 273 272 271 270 269 268 268 267 266 266 266 266 266 266 265 263 262 261 260 260 259 259 259 259 258 259 260 259 257 251 246 243 240 238 236 235 233 232 231 230 229 228 227 227 226 226 226 225 225 225 225 225 226 225 225 225 224 224 224 224 224 224
329 328 328 327 327 326 325 325 324 323 323 322 322 321 320 319 318 317 315 314 313 311 310 308 306 305 303 301 299 297 295 293 290 287 285 283 281 279 277 276 274 273 272 271 270 269 269 268 267 267 266 266 266 266 266 265 264 263 261 260 260 259 259 259 259 258 258 259 259 259 255 250 245 242 240 238 236 234 233 231 230 229 228 227 227 227 226 226 225 225 225 225 225 225 225 225 225 224 224 224 224 224 224
329 328 328 327 327 326 325 325 324 324 323 322 322 321 320 319 318 317 315 314 312 311 310 308 306 305 303 301 300 298 296 294 291 289 286 284 282 280 278 276 275 273 272 271 270 269 269 268 268 267 267 266 266 266 266 265 264 263 262 260 259 259 259 259 258 258 258 258 259 259 258 253 248 244 241 239 237 235 234 232 231 230 229 228 227 227 226 226 226 225 225 225 225 225 225 225 225 225 224 224 224 224 224
328 328 327 327 327 326 326 325 324 324 323 322 322 321 320 318 317 316 314 313 312 310 309 307 306 304 303 301 300 298 296 294 292 290 288 285 283 280 279 277 275 274 272 271 270 269 269 268 268 267 267 266 266 266 266 266 265 264 262 261 260 259 258 258 258 258 258 258 258 258 258 256 251 247 243 241 239 237 235 233 232 230 229 228 228 227 227 226 226 225 225 224 224 225 225 225 225 225 224 224 224 224 224
328 328 327 327 327 326 326 325 325 324 323 322 321 320 319 318 316 315 314 312 311 309 308 306 305 303 302 300 299 297 296 294 292 290 288 286 283 281 279 278 276 274 273 272 270 270 269 269 268 267 267 267 266 266 266 266 265 264 263 262 260 259 258 258 258 257 257 257 257 258 258 257 254 249 245 242 240 238 236 234 233 231 230 229 228 227 227 226 226 226 225 224 224 224 224 224 224 224 224 224 224 224 224
328 328 327 327 327 326 326 325 325 324 323 322 321 320 318 317 316 314 313 311 310 308 306 305 303 302 300 299 297 296 294 293 292 290 288 286 284 282 280 278 276 275 273 272 270 270 269 269 268 267 267 267 266 266 266 266 265 265 264 263 261 259 258 257 257 257 257 257 257 257 257 257 255 252 247 244 241 239 237 235 234 232 231 230 229 228 227 227 226 226 225 225 224 224 224 224 224 224 224 224 224 224 224
328 328 327 327 327 327 326 325 325 324 323 322 321 319 318 317 316 314 313 311 310 308 306 304 302 301 299 297 296 294 293 292 291 289 287 286 284 282 279 277 276 274 273 272 271 270 269 268 268 267 267 267 266 266 266 266 265 265 264 263 262 260 258 257 256 256 256 256 256 256 257 257 256 253 249 245 243 241 239 237 235 233 232 230 229 228 227 227 226 226 226 225 224 224 224 224 224 224 223 224 224 224 224
328 328 328 328 327 327 326 326 325 324 323 322 321 320 319 318 316 315 314 312 311 309 307 305 302 300 298 296 294 293 292 291 289 288 287 285 283 281 279 277 275 274 273 271 271 270 269 268 267 267 267 267 267 266 266 266 265 265 264 263 262 261 259 257 256 256 255 255 255 256 256 256 255 254 251 247 244 242 240 238 236 234 232 231 230 229 228 227 227 226 226 225 225 224 224 224 224 223 223 223 223 224 224
328 328 328 328 328 327 326 326 325 324 323 322 322 321 320 319 318 316 315 314 312 310 308 306 303 301 298 296 293 292 290 289 288 287 285 284 283 281 278 277 275 274 272 271 270 269 268 267 267 267 267 266 266 266 265 265 265 265 264 264 263 261 259 258 256 255 255 255 255 255 255 255 255 254 252 248 245 242 241 239 238 235 233 232 230 229 228 227 227 226 226 226 225 224 224 224 224 224 223 223 223 223 223
329 329 329 329 328 327 327 326 325 325 324 323 323 322 321 320 319 318 317 316 314 313 311 309 306 303 300 297 294 291 289 287 286 285 284 283 281 280 278 276 275 273 272 271 270 269 268 267 267 266 266 266 265 265 265 265 265 265 264 264 263 262 260 258 257 255 255 255 255 254 254 254 254 254 253 250 246 243 241 240 239 237 235 233 231 230 229 228 227 227 226 226 225 225 224 224 224 224 223 223 223 223 223
330 330 329 329 328 328 327 327 326 326 325 325 324 323 323 322 321 321 320 319 318 316 315 313 311 308 304 300 296 293 290 287 286 284 283 282 280 279 277 276 274 272 271 270 269 268 267 266 266 266 265 265 265 265 265 264 264 264 264 264 263 262 260 258 257 255 255 254 254 254 254 254 254 254 253 250 246 243 241 241 240 238 236 234 232 230 229 228 228 227 227 226 226 225 225 224 224 224 223 223 223 223 223
330 330 330 329 329 328 328 327 327 327 326 326 325 325 324 324 324 324 324 323 322 321 320 319 317 315 311 306 302 297 293 289 286 285 283 281 279 278 277 275 273 272 270 269 268 267 266 266 266 265 265 264 264 264 264 264 263 264 264 263 263 262 260 259 257 256 255 254 254 254 254 254 254 254 253 251 247 243 241 240 240 239 237 235 233 231 230 229 228 228 227 227 226 226 225 225 224 224 223 223 223 222 223
331 331 330 330 329 329 329 328 328 328 327 327 327 327 327 327 327 327 328 328 327 327 326 326 325 323 320 316 311 305 299 294 289 286 284 282 280 277 276 274 273 271 269 268 267 266 265 265 265 265 264 264 264 263 263 263 263 263 263 262 262 261 261 260 258 256 255 254 254 254 254 253 253 253 253 252 248 244 240 239 239 239 237 235 233 232 230 229 228 228 227 227 227 226 226 225 225 224 224 223 223 222 222
331 331 331 330 330 330 329 329 329 329 328 328 328 329 329 329 330 331 332 332 332 331 330 330 330 329 327 324 321 316 310 303 297 291 287 284 282 279 276 274 272 270 268 267 265 264 264 264 263 263 263 263 263 262 262 262 262 262 262 262 261 261 261 260 258 257 255 254 253 253 253 253 253 253 253 252 250 246 241 239 238 238 238 236 234 233 231 230 229 228 228 227 227 226 226 226 225 225 224 224 223 222 222
332 331 331 331 331 331 330 330 330 330 329 330 330 330 331 332 333 334 334 334 334 333 332 331 331 331 330 329 327 324 320 314 307 300 293 288 284 281 278 276 273 271 268 266 264 263 262 262 262 262 262 262 262 262 262 262 262 262 261 261 261 261 260 259 258 257 256 254 254 253 253 253 253 253 253 253 251 247 243 239 238 237 238 237 236 234 232 230 229 229 228 227 227 227 226 226 226 225 225 224 224 223 222
332 332 332 332 332 331 331 331 331 331 331 331 331 332 333 334 335 335 335 335 334 333 332 331 330 330 329 329 328 327 325 321 316 309 301 294 289 285 281 278 275 272 269 266 263 262 261 260 260 261 261 261 261 261 261 261 261 261 261 261 260 260 260 259 258 257 256 255 254 253 252 252 252 253 253 253 252 249 245 241 238 237 237 237 237 235 233 231 230 229 228 228 227 227 227 226 226 226 225 225 224 223 223
332 332 333 333 333 332 332 332 331 331 332 332 333 334 335 335 336 336 336 335 335 334 333 331 330 329 328 328 328 327 326 324 321 316 309 301 294 289 285 281 277 274 270 267 264 261 260 259 259 259 260 260 261 261 261 260 260 259 259 259 259 260 260 259 258 257 256 255 254 252 252 251 252 252 253 253 252 250 247 243 239 237 236 237 237 236 234 232 230 229 228 228 228 227 227 227 226 226 225 225 224 224 223
333 333 333 333 333 333 332 332 332 332 333 333 334 335 336 336 336 336 336 336 335 334 333 331 330 328 327 327 327 327 326 324 322 319 315 308 299 292 288 284 281 276 271 268 265 262 260 258 258 258 259 260 260 260 260 259 258 257 257 258 259 260 259 259 258 257 256 255 254 253 252 251 251 252 252 253 252 251 249 246 241 237 236 237 238 237 236 233 231 230 229 228 228 228 227 227 227 226 226 225 225 224 223
334 334 334 334 334 334 333 333 332 332 333 333 334 335 336 336 336 336 336 336 335 334 332 331 329 328 326 326 325 325 325 324 322 320 317 312 305 297 289 285 281 278 273 270 266 263 260 259 259 259 259 260 260 259 257 256 255 256 257 258 259 259 258 258 258 257 257 256 255 253 252 251 251 251 252 252 252 252 251 248 243 238 236 236 237 238 237 235 232 230 229 229 228 228 227 227 227 227 226 226 225 224 223
335 335 335 335 334 334 333 333 332 332 332 333 334 334 335 335 335 335 335 335 334 333 332 330 329 327 326 324 324 324 324 323 322 321 318 314 310 304 297 290 283 279 275 270 266 263 261 261 261 261 261 259 257 254 253 253 254 256 257 258 258 257 257 257 257 257 257 256 255 254 252 251 251 251 251 252 252 252 251 249 245 240 236 235 236 237 238 236 234 232 230 229 228 228 228 227 227 227 227 226 226 225 224
335 336 336 335 335 334 334 333 332 331 331 332 333 333 334 334 334 334 334 334 333 332 331 330 328 327 325 324 323 323 323 323 322 321 318 315 312 308 304 298 291 284 278 271 265 262 264 266 268 266 258 252 250 250 250 252 254 255 256 256 256 257 257 257 257 257 257 256 255 254 252 251 251 251 251 251 252 252 251 250 247 242 238 235 235 237 238 238 236 234 231 230 229 228 228 228 227 227 227 227 226 225 224
336 336 336 336 335 334 333 332 331 330 330 331 332 333 334 334 334 334 333 333 333 332 331 329 327 326 324 323 322 323 323 323 322 320 317 314 311 308 305 302 298 293 287 278 268 259 258 256 253 252 249 248 248 248 249 251 252 253 254 254 255 256 257 257 257 257 256 256 255 254 253 252 251 251 251 251 252 251 251 250 248 244 240 236 235 236 237 238 237 235 233 231 229 229 228 228 228 227 227 227 226 225 224
337 337 337 336 335 334 332 331 329 329 331 332 333 334 335 335 335 334 333 333 332 331 330 329 327 325 324 323 323 323 323 323 322 320 317 314 311 309 306 305 303 301 298 294 281 262 241 222 216 224 236 243 246 247 248 249 249 250 251 253 254 255 256 256 256 256 256 256 255 254 253 252 251 251 251 251 251 251 250 250 248 245 241 237 235 235 236 238 238 236 234 232 230 229 228 228 228 227 227 227 226 225 225
338 338 337 336 335 333 331 329 329 329 332 334 335 336 336 336 335 334 333 333 332 331 330 329 328 326 324 324 323 324 324 324 323 321 317 314 312 310 309 307 306 304 302 298 293 281 255 232 219 220 228 237 241 244 245 246 247 247 249 251 252 254 255 255 256 255 255 255 254 254 253 252 251 251 251 250 251 250 250 249 248 246 243 239 236 235 236 237 238 237 235 233 231 230 229 229 228 227 227 227 226 226 225
338 338 337 336 334 332 330 328 328 330 332 335 337 337 337 337 336 335 334 333 332 332 331 330 328 327 326 325 325 325 325 324 323 321 318 314 311 310 310 309 307 305 302 299 296 290 275 253 234 225 226 231 236 241 243 244 245 247 248 250 251 252 253 254 254 254 254 254 255 255 254 253 252 251 250 250 250 250 250 249 248 247 244 241 237 236 235 236 237 237 236 234 232 231 230 229 229 228 227 226 226 226 225
338 338 337 336 334 331 329 327 328 330 333 336 337 338 338 337 336 335 335 334 333 333 332 331 330 329 327 327 326 326 325 325 324 322 318 314 311 308 308 308 309 308 307 304 300 294 286 271 252 237 229 228 233 239 243 244 246 247 248 249 250 251 251 252 253 253 254 255 256 255 254 253 252 251 250 250 250 250 250 249 248 247 245 242 239 236 236 236 236 236 236 235 233 232 231 230 229 228 227 227 226 226 225
339 338 337 336 334 331 329 327 328 330 333 336 338 338 338 338 337 336 336 335 335 334 333 332 331 330 329 329 328 327 326 325 325 323 320 315 311 309 307 307 306 304 304 303 302 300 293 282 270 256 241 231 231 238 242 244 245 246 247 247 248 249 250 251 253 254 255 256 256 255 254 254 253 252 251 250 250 250 249 249 248 247 245 242 240 237 236 236 236 236 236 235 234 232 231 231 230 229 228 227 227 226 225
339 338 337 336 334 332 329 328 328 330 332 335 338 339 339 339 338 338 337 337 336 336 335 334 333 332 331 330 329 328 327 326 325 324 322 318 314 311 309 307 305 304 302 301 301 301 298 290 281 271 258 240 233 235 241 243 243 243 244 245 246 248 249 251 253 254 255 256 255 255 255 254 253 252 251 251 250 250 249 249 248 246 245 243 241 239 237 236 236 236 236 235 234 233 231 231 230 230 229 228 227 227 226
338 338 337 336 335 333 331 329 329 330 333 336 338 339 340 340 340 339 339 339 338 338 338 337 335 334 333 332 330 328 327 326 325 324 323 321 318 315 312 309 306 303 300 300 300 299 298 294 287 281 273 258 245 238 237 239 241 241 241 242 244 246 248 250 251 253 254 254 255 255 255 255 254 253 252 252 251 250 250 249 248 247 245 244 242 240 238 236 236 237 237 236 234 233 232 231 231 230 230 229 228 227 227
339 337 337 337 336 335 332 330 331 332 335 338 340 341 342 341 341 341 341 341 341 340 339 338 337 335 334 332 331 329 327 326 326 325 323 320 319 318 315 311 307 302 298 296 296 296 296 291 289 287 281 271 261 251 239 237 237 238 238 240 242 244 246 248 250 251 252 253 254 254 255 255 255 254 253 253 252 251 250 249 248 247 246 244 243 241 238 237 237 237 237 236 234 232 231 231 231 231 230 229 229 228 227
339 338 337 338 337 336 334 333 334 336 339 341 343 344 344 343 343 342 342 342 342 342 341 340 338 337 335 334 332 330 328 326 325 325 323 319 318 318 317 312 306 302 299 296 295 294 292 290 289 286 282 280 274 263 251 240 234 233 236 238 241 243 245 247 248 250 251 251 252 253 254 254 254 254 254 253 253 252 251 250 249 248 246 245 243 241 239 237 237 237 237 235 234 232 231 230 230 230 230 230 230 229 228